Regional Weather Roundup
Issued by NWS Jackson, KY

Home | Current Version | Previous Version | Graphics & Text | Print | Product List | Glossary On
Versions: 1 2 3 4 5 6 7 8 9 10 11 12 13 14 15 16 17 18 19 20 21 22 23 24 25 26 27 28 29 30 31 32 33 34 35 36 37 38 39 40 41 42 43 44 45 46 47 48 49 50
000
ASUS43 KJKL 160405
RWRJKL

EAST KENTUCKY HOURLY WEATHER ROUNDUP
NATIONAL WEATHER SERVICE JACKSON KY
1200 AM EDT WED APR 16 2014

NOTE: "FAIR" INDICATES FEW OR NO CLOUDS BELOW 12,000 FEET WITH
NO SIGNIFICANT WEATHER AND/OR OBSTRUCTIONS TO VISIBILITY.

* THESE REPORTS ARE NOT UNDER NWS QUALITY CONTROL AND MAY NOT
  REPORT WEATHER SUCH AS PRECIPITATION AND FOG.

KYZ079-080-083-085-087-088-110-112-115-119-120-160500
...EASTERN KENTUCKY...

CITY           SKY/WX    TMP DP  RH WIND       PRES   REMARKS
JACKSON        PTCLDY    32  19  58 VRB7      30.20R WCI  26
LONDON         CLEAR     33  22  63 NE5       30.21R WCI  29
SOMERSET*      CLEAR     32  21  64 NE7       30.23R WCI  26
MONTICELLO*    CLEAR     33  24  70 NE6       30.23R WCI  27
WILLIAMSBURG*  CLEAR     32  23  69 N7        30.21  WCI  26
MIDDLESBORO*   PTCLDY    35  22  60 N6        30.19R WCI  30
HARLAN APT*    MOCLDY    32  19  59 N5        30.17R WCI  27
BLACK MTN*       N/A     19  19 100 N14         N/A  WCI   6
PIKEVILLE APT* CLEAR     30  18  59 N6        30.18S WCI  24
BIG SANDY*     CLEAR     31  20  63 N3        30.20S
$$

KYZ035-036-041-042-044-050-067-078-099-160500
...CENTRAL KENTUCKY...

CITY           SKY/WX    TMP DP  RH WIND       PRES   REMARKS
MT STERLING*   CLEAR     32  21  64 NE3       30.25R
FLEMING/MASON* CLEAR     31  19  61 NE6       30.25S WCI  25
DANVILLE*      CLEAR     32  23  69 NE3       30.23F
RICHMOND*      CLEAR     32  21  64 N6        30.22S WCI  26
LEXINGTON      CLEAR     30  19  63 NE7       30.23S WCI  23
FRANKFORT      CLEAR     32  20  61 NE3       30.23S
$$

KYZ091>093-OHZ055-061-077-WVZ005-015-034-035-042-160500
...SOUTHERN OHIO/WEST VIRGINIA...

CITY           SKY/WX    TMP DP  RH WIND       PRES   REMARKS
COVINGTON      CLEAR     31  18  58 N6        30.25R WCI  25
COLUMBUS       CLEAR     32  14  47 NW10      30.24S WCI  24
DAYTON         CLEAR     28  17  63 N5        30.25F WCI  23
WILMINGTON     CLEAR     28  16  60 N7        30.23F WCI  21
HUNTINGTON     CLEAR     31  20  63 N6        30.23S WCI  25
CHARLESTON     MOCLDY    33  18  53 NW6       30.21S WCI  28
PINEVILLE*     CLOUDY    33  22  62 MISG      30.20S
BECKLEY        CLOUDY    27  15  61 NW14      30.10S WCI  16
BLUEFIELD      CLOUDY    29  16  58 VRB6G17   30.08R WCI  23
$$

VAZ002-007-008-TNZ017-027-036-066-071-160500
...SOUTHWEST VIRGINIA/EAST TENNESSEE...

CITY           SKY/WX    TMP DP  RH WIND       PRES   REMARKS
WISE*          CLOUDY    30  19  64 N10G17    30.11S WCI  21
ABINGDON*      CLOUDY    33  19  56 N10G20    30.11S WCI  25
BRISTOL        MOCLDY    34  17  50 N13G21    30.14S WCI  25
KNOXVILLE      PTCLDY    36  22  56 NE9       30.17R WCI  29
OAK RIDGE      CLEAR     37  23  56 VRB6      30.20R WCI  32
CROSSVILLE     CLEAR     35  22  58 N7        30.16R WCI  29
NASHVILLE      CLEAR     38  22  52 N7        30.24R WCI  33
$$

...KEY TO REMARKS...
VSB - VISIBILITY IN MILES
WCI - WIND CHILL INDEX
HX  - HEAT INDEX

$$



USA.gov is the U.S. government's official web portal to all federal, state and local government web resources and services.